Weather History for KPEO - August, 2013

Change the Weather History Date:

Tuesday, August 6, 2013

  Actual Average (KITH) Record (KITH)
Temperature  
Mean Temperature 65 °F -  
Max Temperature 78 °F 78 °F 98 °F (1931)
Min Temperature 52 °F 56 °F 40 °F (1951)
Growing Degree Days 15 (Base 50)    
Moisture  
Dew Point 55 °F    
Average Humidity 70    
Maximum Humidity 93    
Minimum Humidity 40    
Precipitation  
Precipitation 0.00 in - - ()
Sea Level Pressure  
Sea Level Pressure 30.06 in    
Wind  
Wind Speed 4 mph (South)    
Max Wind Speed 9 mph    
Max Gust Speed -    
Visibility 10 miles    
Events      
Averages and records for this station are not official NWS values.
T = Trace of Precipitation, MM = Missing Value Source: NWS Daily Summary

Daily Weather History Graph

Daily Weather History Graph

Search for Another Location

Airport or City:

Trip Planner

Search our weather history database for the weather conditions in past years. The results will help you decide how hot, cold, wet, or windy it might be!

Date:

Astronomy

Aug. 06, 2013 Rise Set
Actual Time 6:05 AM EDT 8:21 PM EDT
Civil Twilight 5:34 AM EDT 8:53 PM EDT
Nautical Twilight 4:55 AM EDT 9:31 PM EDT
Astronomical Twilight 4:12 AM EDT 10:14 PM EDT
Moon 5:56 AM EDT (8/6) 7:53 PM EDT (8/6)
Length of Visible Light 15h 19m
Length of Day
14h 16m
Waning Crescent, 0% of the Moon is Illuminated
Aug 6
Waning Crescent
Aug 6
New
Aug 14
First Quarter
Aug 20
Full
Aug 28
Last Quarter

Hourly Weather History & Observations

Time (EDT) Temp. Dew Point Humidity Pressure Visibility Wind Dir Wind Speed Gust Speed Precip Events Conditions
12:53 AM 54.0 °F 51.1 °F 90% 30.06 in 10.0 mi Calm Calm - N/A   Clear
1:53 AM 52.0 °F 50.0 °F 93% 30.05 in 9.0 mi Calm Calm - N/A   Clear
2:53 AM 55.9 °F 54.0 °F 93% 30.06 in 10.0 mi SSW 3.5 mph - N/A   Clear
3:53 AM 55.9 °F 54.0 °F 93% 30.06 in 10.0 mi SW 4.6 mph - N/A   Clear
4:53 AM 55.0 °F 53.1 °F 93% 30.06 in 10.0 mi SSW 3.5 mph - N/A   Clear
5:53 AM 55.9 °F 54.0 °F 93% 30.06 in 10.0 mi SW 4.6 mph - N/A   Clear
6:53 AM 55.9 °F 53.1 °F 90% 30.07 in 10.0 mi SW 5.8 mph - N/A   Partly Cloudy
7:53 AM 57.9 °F 54.0 °F 87% 30.07 in 10.0 mi SSW 5.8 mph - N/A   Clear
8:53 AM 63.0 °F 55.0 °F 75% 30.07 in 10.0 mi SSW 8.1 mph - N/A   Clear
9:53 AM 68.0 °F 54.0 °F 61% 30.08 in 10.0 mi Variable 5.8 mph - N/A   Clear
10:53 AM 69.1 °F 55.0 °F 61% 30.09 in 10.0 mi South 4.6 mph - N/A   Scattered Clouds
11:53 AM 72.0 °F 51.1 °F 48% 30.08 in 10.0 mi Variable 3.5 mph - N/A   Clear
12:53 PM 75.0 °F 51.1 °F 43% 30.07 in 10.0 mi Variable 3.5 mph - N/A   Mostly Cloudy
1:53 PM 73.9 °F 52.0 °F 46% 30.06 in 10.0 mi SSE 6.9 mph - N/A   Mostly Cloudy
2:53 PM 78.1 °F 52.0 °F 40% 30.05 in 10.0 mi SW 6.9 mph - N/A   Clear
3:53 PM 78.1 °F 52.0 °F 40% 30.04 in 10.0 mi Variable 3.5 mph - N/A   Partly Cloudy
4:53 PM 75.9 °F 59.0 °F 56% 30.04 in 10.0 mi SE 5.8 mph - N/A   Mostly Cloudy
5:53 PM 75.0 °F 57.9 °F 55% 30.04 in 10.0 mi SE 9.2 mph - N/A   Scattered Clouds
6:53 PM 73.9 °F 59.0 °F 59% 30.03 in 10.0 mi SE 8.1 mph - N/A   Partly Cloudy
7:53 PM 71.1 °F 59.0 °F 66% 30.03 in 10.0 mi ESE 4.6 mph - N/A   Clear
8:53 PM 66.9 °F 59.0 °F 76% 30.04 in 10.0 mi SSE 3.5 mph - N/A   Partly Cloudy
9:53 PM 66.0 °F 59.0 °F 78% 30.04 in 10.0 mi Calm Calm - N/A   Clear
10:53 PM 66.9 °F 57.9 °F 73% 30.05 in 10.0 mi South 6.9 mph - N/A   Clear
11:53 PM 64.9 °F 57.0 °F 75% 30.05 in 10.0 mi SSE 8.1 mph - N/A   Scattered Clouds